{"data":{"norad_id":69010,"intl_designator":"2026-100AG","name":"DRISHTI","alt_names":[],"object_type":"PAYLOAD","status":"ACTIVE","operator":null,"country":"IND","launch_date":"2026-05-03","launch_site_code":"AFWTR","launch_vehicle":null,"mission":null,"orbit_class":"UNKNOWN","rcs_meters":null,"size_class":null,"mass_kg":null,"dimensions":null,"purposes":[],"wikipedia_slug":null,"has_3d_model":false,"image_url":null,"decayed_at":null,"tle_current":{"epoch":"2026-05-25T04:26:50.549856Z","epoch_age_seconds":54955,"freshness":"FRESH","line1":"1 69010U 26100AG  26145.18530729  .00002400  00000+0  11352-3 0  9998","line2":"2 69010  97.4065  43.4212 0007079 104.3657 255.8364 15.20316709  3318","mean_motion":15.20316709,"eccentricity":0.0007079,"inclination_deg":97.4065,"raan_deg":43.4212,"arg_perigee_deg":104.3657,"mean_anomaly_deg":255.8364,"bstar":0.00011352,"rev_number":331,"period_min":94.717106736738,"perigee_km":500.01205297722,"apogee_km":509.75703487911,"semimajor_km":6883.0215439282,"source":"CELESTRAK","updated_at":"2026-05-25T13:38:09.039215Z"}}}